DW8522 Weather Reports


time (UTC)temp
C
wind
direction
speed
KPH
gust
KPH
rain 1hr
cm
rain 24hr
cm
rain mn
cm
humidity
%
barometer
mb
20260906141521 15 93 1.6 6.4 0.03 0.03 0.03 92 1006.3
20260906140031 15 94 3.2 8.0 0.00 0.00 0.00 91 1006.5
20260906134516 15 100 0.0 8.0 0.00 0.00 0.00 91 1006.8
20260906133022 15 274 0.0 4.8 0.00 0.00 0.00 91 1007.2
20260906131513 15 69 1.6 11.3 0.00 0.00 0.00 91 1007.3
20260906130020 15 80 3.2 6.4 0.00 0.00 0.00 90 1007.5
20260906124509 15 102 1.6 8.0 0.00 0.00 0.00 90 1007.6
20260906123007 15 58 4.8 11.3 0.00 0.00 0.00 90 1007.8
20260906121503 15 63 3.2 11.3 0.00 0.00 0.00 90 1007.7
20260906120135 15 76 4.8 11.3 0.00 0.00 0.00 89 1007.9
20260906114621 15 50 3.2 9.7 0.00 0.00 0.00 89 1008.0
20260906113057 15 97 0.0 8.0 0.00 0.00 0.00 89 1008.1
20260906111603 15 93 3.2 8.0 0.00 0.00 0.00 89 1008.6
20260906110053 15 93 1.6 4.8 0.00 0.00 0.00 89 1008.7
20260906104551 15 79 1.6 6.4 0.00 0.00 0.00 89 1008.9
20260906103051 15 80 1.6 4.8 0.00 0.00 0.00 89 1009.2
20260906101547 15 84 3.2 4.8 0.00 0.00 0.00 89 1009.3
20260906100057 15 102 3.2 14.5 0.00 0.00 0.00 89 1009.4
20260906094549 15 104 3.2 8.0 0.00 0.00 0.00 89 1009.6
20260906093043 15 94 3.2 11.3 0.00 0.00 0.00 89 1009.7
20260906091541 15 119 4.8 12.9 0.00 0.00 0.00 88 1009.9
20260906090039 15 329 6.4 12.9 0.00 0.00 0.00 87 1010.0
20260906084639 15 325 3.2 16.1 0.00 0.00 0.00 87 1010.2
20260906083038 15 37 1.6 6.4 0.00 0.00 0.00 87 1010.1
20260906081535 15 108 0.0 9.7 0.00 0.00 0.00 85 1010.3
20260906080036 15 119 1.6 8.0 0.00 0.00 0.00 85 1010.3
20260906074537 15 86 1.6 3.2 0.00 0.00 0.00 85 1010.5
20260906073031 15 105 0.0 3.2 0.00 0.00 0.00 85 1010.7
20260906071528 15 141 0.0 6.4 0.00 0.00 0.00 84 1010.9
20260906070027 15 113 1.6 6.4 0.00 0.00 0.00 84 1011.1
20260906064527 15 104 1.6 6.4 0.00 0.00 0.00 84 1011.1
20260906063031 15 284 1.6 6.4 0.00 0.00 0.00 82 1011.2
20260906061525 15 110 1.6 6.4 0.00 0.00 0.00 80 1011.2
20260906060024 16 293 1.6 6.4 0.00 0.00 0.00 79 1011.2
20260906054542 16 342 1.6 4.8 0.00 0.00 0.00 77 1011.3
20260906053022 17 152 1.6 6.4 0.00 0.00 0.00 76 1011.4
20260906051529 17 285 3.2 8.0 0.00 0.00 0.00 74 1011.5
20260906050028 17 335 1.6 11.3 0.00 0.00 0.00 71 1011.8
20260906044519 17 317 4.8 11.3 0.00 0.00 0.00 73 1011.8
20260906043018 16 278 3.2 11.3 0.00 0.00 0.00 72 1011.7
20260906041516 16 302 4.8 11.3 0.00 0.00 0.00 71 1011.8
20260906040017 17 292 4.8 16.1 0.00 0.00 0.00 70 1012.1
20260906034517 16 188 4.8 16.1 0.00 0.00 0.00 70 1012.2
20260906033011 17 258 6.4 22.5 0.00 0.00 0.00 69 1012.4
20260906031527 17 278 6.4 12.9 0.00 0.00 0.00 71 1012.5
20260906030011 17 335 3.2 8.0 0.00 0.00 0.00 71 1012.6
20260906024530 17 120 1.6 6.4 0.00 0.00 0.00 72 1012.7
20260906023007 17 101 1.6 8.0 0.00 0.00 0.00 73 1012.8
20260906021501 17 14 1.6 6.4 0.00 0.00 0.00 76 1013.1
20260906020101 16 206 1.6 6.4 0.00 0.00 0.00 79 1013.2
20260906014557 15 335 3.2 11.3 0.00 0.00 0.00 80 1013.4
20260906013103 15 335 6.4 12.9 0.00 0.00 0.00 77 1013.7
20260906011553 16 302 6.4 14.5 0.00 0.00 0.00 76 1014.0
20260906010052 16 177 4.8 12.9 0.00 0.00 0.00 73 1014.2
20260906004549 16 322 3.2 11.3 0.00 0.00 0.00 73 1014.4
20260906003046 16 13 3.2 9.7 0.00 0.00 0.00 75 1014.8
20260906001543 16 322 4.8 14.5 0.00 0.00 0.00 72 1015.2
20260906000050 16 168 4.8 9.7 0.00 0.00 0.00 70 1015.5
20260905234546 17 129 1.6 11.3 0.00 0.00 0.00 71 1015.6
20260905233035 17 170 3.2 11.3 0.00 0.00 0.00 72 1015.9
20260905231531 16 143 3.2 9.7 0.00 0.00 0.00 75 1016.2
20260905230033 16 190 6.4 14.5 0.00 0.00 0.00 72 1016.6
20260905224528 16 173 6.4 16.1 0.00 0.00 0.00 73 1016.9
20260905223027 16 86 3.2 17.7 0.00 0.00 0.00 74 1017.0
20260905221525 16 257 3.2 11.3 0.00 0.00 0.00 76 1017.2
20260905220023 16 245 1.6 9.7 0.00 0.00 0.00 78 1017.2
20260905214521 16 39 3.2 9.7 0.00 0.00 0.00 79 1017.5
20260905213018 15 161 4.8 11.3 0.00 0.00 0.00 81 1017.5
20260905211539 15 136 3.2 8.0 0.00 0.00 0.00 84 1017.7
20260905210012 14 188 1.6 6.4 0.00 0.00 0.00 85 1017.9
20260905204509 13 111 3.2 8.0 0.00 0.00 0.00 87 1017.8
20260905203008 13 152 0.0 4.8 0.00 0.00 0.00 88 1017.8
20260905201505 13 131 0.0 1.6 0.00 0.00 0.00 89 1018.0
20260905200004 12 131 0.0 1.6 0.00 0.00 0.00 91 1018.0
20260905194501 12 131 0.0 1.6 0.00 0.00 0.00 92 1017.7
20260905193101 11 141 0.0 1.6 0.00 0.00 0.00 92 1017.6
20260905191602 10 139 0.0 1.6 0.00 0.00 0.00 92 1017.5
20260905190059 10 139 0.0 0.0 0.00 0.00 0.00 91 1017.4
20260905184558 10 138 0.0 0.0 0.00 0.00 0.00 90 1017.4
20260905183058 11 138 0.0 1.6 0.00 0.00 0.00 89 1017.0
20260905181557 11 139 0.0 1.6 0.00 0.00 0.00 89 1017.0
20260905180103 12 139 0.0 3.2 0.00 0.00 0.00 88 1016.9
20260905174556 12 141 0.0 3.2 0.00 0.00 0.00 88 1016.9
20260905173103 11 278 0.0 4.8 0.00 0.00 0.00 88 1016.9
20260905171555 11 101 0.0 3.2 0.00 0.00 0.00 87 1016.7
20260905170053 12 168 0.0 1.6 0.00 0.00 0.00 86 1016.8
20260905164553 12 168 0.0 4.8 0.00 0.00 0.00 85 1016.9
20260905163051 12 155 1.6 11.3 0.00 0.00 0.00 88 1016.9
20260905161551 11 103 0.0 3.2 0.00 0.00 0.00 90 1016.8
20260905160051 11 148 0.0 1.6 0.00 0.00 0.00 89 1017.0
20260905154556 11 150 0.0 1.6 0.00 0.00 0.00 89 1017.4
20260905153049 10 140 0.0 3.2 0.00 0.00 0.00 90 1017.0
20260905151549 10 103 1.6 4.8 0.00 0.00 0.00 89 1016.6
20260905150047 10 130 0.0 0.0 0.00 0.00 0.00 89 1017.1
20260905144544 10 129 0.0 1.6 0.00 0.00 0.00 88 1017.1
20260905143048 10 129 0.0 1.6 0.00 0.00 0.00 87 1017.3